This is the latest recevied weather packets stored in our database for station/object AD8IZ-13. If no packets are shown the sender has not sent any weather packets the latest 10 day(s).
| Time | Temp. | Humidity | Pressure | Rain* | Wind** | Luminosity | Snow |
|---|---|---|---|---|---|---|---|
| 1778042121 | 12.22° C | 98% | 1007.7 hPa | 0.76 mm | - | 0 W/m² | - |
| 1778041520 | 12.78° C | 98% | 1007.6 hPa | 1.52 mm | - | 0 W/m² | - |
| 1778040919 | 13.89° C | 98% | 1007.6 hPa | 2.03 mm | - | 0 W/m² | - |
| 1778040319 | 14.44° C | 98% | 1007.5 hPa | 2.79 mm | - | 0 W/m² | - |
| 1778039722 | 14.44° C | 98% | 1007.6 hPa | 3.05 mm | - | 0 W/m² | - |
| 1778039121 | 14.44° C | 98% | 1007.9 hPa | 2.79 mm | - | 0 W/m² | - |
| 1778038518 | 14.44° C | 98% | 1008 hPa | 2.79 mm | - | 0 W/m² | - |
| 1778037918 | 14.44° C | 98% | 1008.1 hPa | 2.79 mm | - | 0 W/m² | - |
| 1778037321 | 15° C | 98% | 1008.1 hPa | 2.54 mm | - | 0 W/m² | - |
| 1778036719 | 15° C | 98% | 1008.1 hPa | 2.54 mm | - | 0 W/m² | - |
| 1778036118 | 15° C | 98% | 1008.1 hPa | 2.79 mm | - | 0 W/m² | - |
| 1778035519 | 15° C | 98% | 1008 hPa | 3.05 mm | - | 0 W/m² | - |
| 1778034919 | 15° C | 98% | 1008.2 hPa | 3.3 mm | - | 0 W/m² | - |
| 1778034317 | 15° C | 98% | 1008.2 hPa | 2.79 mm | - | 0 W/m² | - |
| 1778033721 | 15° C | 98% | 1008.2 hPa | 2.54 mm | - | 0 W/m² | - |
| 1778033119 | 15° C | 98% | 1008.2 hPa | 2.03 mm | - | 0 W/m² | - |
| 1778032519 | 15° C | 98% | 1008 hPa | 1.27 mm | - | 0 W/m² | - |
| 1778031918 | 15° C | 98% | 1008 hPa | 1.27 mm | - | 0 W/m² | - |
| 1778031319 | 15° C | 98% | 1007.9 hPa | 1.02 mm | - | 0 W/m² | - |
| 1778030721 | 15° C | 98% | 1007.8 hPa | 0.76 mm | - | 0 W/m² | - |
| 1778030121 | 15° C | 98% | 1007.5 hPa | 0.76 mm | - | 0 W/m² | - |
| 1778029519 | 15.56° C | 98% | 1007.6 hPa | 0.76 mm | - | 0 W/m² | - |
| 1778028919 | 15.56° C | 98% | 1007.7 hPa | 0.76 mm | - | 0 W/m² | - |
| 1778028318 | 15.56° C | 98% | 1007.8 hPa | 0.51 mm | - | 0 W/m² | - |
| 1778027718 | 15.56° C | 98% | 1007.9 hPa | 0.25 mm | - | 0 W/m² | - |
* Rain latest hour (hover to see other rain measurements)
** Current wind speed in m/s (hover to see current wind gust speed)